Fort Smith, AR

8:10 PM CST on February 06, 2016 (GMT -0600)
Fort Smith Regional

Weather History for KFSM - December, 2013

Change the Weather History Date:

Tuesday, December 3, 2013

  Actual Average Record
Temperature  
Mean Temperature 52 °F 44 °F  
Max Temperature 63 °F 55 °F 80 °F (2012)
Min Temperature 41 °F 34 °F 15 °F (1895)
Degree Days  
Heating Degree Days 13 21  
Month to date heating degree days 35 61  
Since 1 July heating degree days 625 626  
Growing Degree Days 2 (Base 50)    
Moisture  
Dew Point 49 °F    
Average Humidity 89    
Maximum Humidity 100    
Minimum Humidity 78    
Precipitation  
Precipitation 0.00 in 0.12 in 1.64 in (1973)
Month to date precipitation 0.00 0.38  
Year to date precipitation 42.95 42.55  
Sea Level Pressure  
Sea Level Pressure 29.63 in    
Wind  
Wind Speed 8 mph (ENE)    
Max Wind Speed 16 mph    
Max Gust Speed 21 mph    
Visibility 2 miles    
Events Fog    
T = Trace of Precipitation, MM = Missing Value Source: NWS Daily Summary

Daily Weather History Graph

Daily Weather History Graph

Search for Another Location

Airport or City:

Trip Planner

Search our weather history database for the weather conditions in past years. The results will help you decide how hot, cold, wet, or windy it might be!

Date:

Astronomy

Dec. 03, 2013 Rise Set
Actual Time 7:09 AM CST 5:04 PM CST
Civil Twilight 6:41 AM CST 5:32 PM CST
Nautical Twilight 6:10 AM CST 6:04 PM CST
Astronomical Twilight 5:39 AM CST 6:35 PM CST
Moon 7:40 AM CST (12/3) 6:08 PM CST (12/3)
Length of Visible Light 10h 50m
Length of Day
9h 54m
New Moon, 1% of the Moon is Illuminated
Dec 3
New Moon
Dec 9
First Quarter
Dec 17
Full
Dec 25
Last Quarter
Jan 1
New

Hourly Weather History & Observations

Time (CST) Temp. Windchill Dew Point Humidity Pressure Visibility Wind Dir Wind Speed Gust Speed Precip Events Conditions
12:02 AM 48.2 °F - 46.4 °F 93% 29.70 in 1.5 mi Calm Calm - N/A   Clear
12:12 AM 46.4 °F - 46.4 °F 100% 29.70 in 1.0 mi Calm Calm - N/A   Clear
12:21 AM 46.4 °F - 46.4 °F 100% 29.70 in 2.0 mi Calm Calm - N/A   Clear
12:41 AM 46.4 °F - 44.6 °F 93% 29.68 in 1.0 mi Calm Calm - N/A   Clear
12:51 AM 44.6 °F - 42.8 °F 93% 29.69 in 0.8 mi Calm Calm - N/A   Clear
12:53 AM 45.0 °F - 43.0 °F 93% 29.69 in 0.8 mi Calm Calm - N/A   Clear
1:04 AM 42.8 °F - 39.2 °F 87% 29.68 in 0.5 mi Calm Calm - N/A Fog Fog
1:11 AM 42.8 °F - 39.2 °F 87% 29.68 in 0.2 mi Calm Calm - N/A Fog Fog
1:23 AM 42.8 °F - 41.0 °F 93% 29.68 in 0.2 mi Calm Calm - N/A Fog Fog
1:53 AM 41.0 °F - 39.9 °F 96% 29.67 in 0.2 mi Calm Calm - N/A Fog Fog
2:10 AM 41.0 °F - 41.0 °F 100% 29.67 in 0.2 mi Calm Calm - N/A Fog Fog
2:29 AM 42.8 °F - 42.8 °F 100% 29.67 in 0.2 mi Calm Calm - N/A Fog Fog
2:53 AM 44.1 °F 42.5 °F 43.0 °F 96% 29.66 in 0.2 mi NE 3.5 mph - N/A Fog Fog
3:53 AM 45.0 °F 42.6 °F 44.1 °F 97% 29.65 in 0.2 mi ENE 4.6 mph - N/A Fog Fog
4:53 AM 45.0 °F 41.2 °F 44.1 °F 97% 29.64 in 0.2 mi NE 6.9 mph - N/A Fog Fog
5:53 AM 45.0 °F 42.6 °F 44.1 °F 97% 29.64 in 0.2 mi ENE 4.6 mph - N/A Fog Fog
6:53 AM 45.0 °F 40.6 °F 44.1 °F 97% 29.65 in 0.2 mi ENE 8.1 mph - N/A Fog Fog
7:53 AM 46.0 °F 42.5 °F 45.0 °F 96% 29.64 in 0.2 mi East 6.9 mph - N/A Fog Fog
8:44 AM 46.4 °F 42.9 °F 46.4 °F 100% 29.65 in 0.2 mi ENE 6.9 mph - N/A Fog Fog
8:53 AM 46.9 °F - 46.0 °F 97% 29.66 in 0.2 mi NE 8.1 mph - N/A Fog Fog
9:53 AM 48.9 °F - 48.0 °F 97% 29.66 in 0.2 mi ENE 10.4 mph - N/A Fog Fog
10:53 AM 51.1 °F - 50.0 °F 96% 29.64 in 0.2 mi East 6.9 mph - N/A Fog Fog
11:02 AM 51.8 °F - 51.8 °F 100% 29.64 in 0.5 mi ENE 10.4 mph - N/A Fog Fog
11:39 AM 53.6 °F - 51.8 °F 94% 29.63 in 1.2 mi ENE 9.2 mph - N/A   Overcast
11:53 AM 54.0 °F - 53.1 °F 97% 29.62 in 1.5 mi ENE 10.4 mph - N/A   Overcast
12:31 PM 57.2 °F - 53.6 °F 88% 29.60 in 5.0 mi East 10.4 mph - N/A   Overcast
12:53 PM 59.0 °F - 53.1 °F 81% 29.59 in 5.0 mi East 13.8 mph - N/A   Haze
1:18 PM 60.8 °F - 53.6 °F 77% 29.58 in 6.0 mi ENE 11.5 mph - N/A   Haze
1:53 PM 60.1 °F - 54.0 °F 80% 29.56 in 7.0 mi ENE 11.5 mph - N/A   Overcast
2:19 PM 60.8 °F - 53.6 °F 77% 29.54 in 7.0 mi ENE 12.7 mph - N/A   Overcast
2:53 PM 60.1 °F - 54.0 °F 80% 29.54 in 7.0 mi ENE 15.0 mph - N/A   Overcast
3:24 PM 59.0 °F - 53.6 °F 82% 29.54 in 7.0 mi ENE 12.7 mph - N/A   Overcast
3:53 PM 57.9 °F - 53.1 °F 84% 29.56 in 6.0 mi ENE 16.1 mph - N/A   Haze
4:53 PM 57.0 °F - 53.1 °F 87% 29.58 in 5.0 mi ENE 11.5 mph - N/A   Overcast
5:53 PM 55.9 °F - 53.1 °F 90% 29.60 in 6.0 mi East 10.4 mph - N/A   Overcast
6:53 PM 55.9 °F - 53.1 °F 90% 29.62 in 6.0 mi East 9.2 mph - N/A   Overcast
7:04 PM 55.4 °F - 53.6 °F 94% 29.62 in 6.0 mi East 5.8 mph - N/A   Overcast
7:15 PM 55.4 °F - 53.6 °F 94% 29.62 in 6.0 mi East 5.8 mph - N/A   Overcast
7:53 PM 53.1 °F - 51.1 °F 93% 29.63 in 5.0 mi ENE 5.8 mph - N/A   Mostly Cloudy
8:18 PM 51.8 °F - 51.8 °F 100% 29.63 in 4.0 mi ENE 4.6 mph - N/A   Mostly Cloudy
8:25 PM 51.8 °F - 50.0 °F 94% 29.63 in 3.0 mi ENE 5.8 mph - N/A   Scattered Clouds
8:35 PM 51.8 °F - 50.0 °F 94% 29.63 in 2.5 mi NE 4.6 mph - N/A   Scattered Clouds
8:46 PM 51.8 °F - 50.0 °F 94% 29.63 in 2.5 mi ENE 4.6 mph - N/A   Mostly Cloudy
8:53 PM 53.1 °F - 52.0 °F 96% 29.63 in 3.0 mi ENE 5.8 mph - N/A   Mostly Cloudy
8:55 PM 53.6 °F - 51.8 °F 94% 29.63 in 1.0 mi ENE 6.9 mph - N/A   Mostly Cloudy
9:05 PM 53.6 °F - 51.8 °F 94% 29.63 in 0.5 mi East 8.1 mph - N/A Fog Fog
9:53 PM 53.1 °F - 52.0 °F 96% 29.63 in 0.5 mi East 4.6 mph - N/A Fog Fog
10:53 PM 52.0 °F - 51.1 °F 97% 29.62 in 0.5 mi East 6.9 mph - N/A Fog Fog
11:30 PM 51.8 °F - 51.8 °F 100% 29.63 in 0.2 mi East 5.8 mph - N/A Fog Fog
11:53 PM 52.0 °F - 52.0 °F 100% 29.62 in 0.2 mi East 6.9 mph - N/A Fog Fog